Time,TemperatureF,DewpointF,PressureIn,WindDirection,WindDirectionDegrees,WindSpeedMPH,WindSpeedGustMPH,Humidity,HourlyPrecipIn,Conditions,Clouds,dailyrainin,SoftwareType,DateUTC
2013-02-12 00:04:00,35.0,31.2,30.17,WSW,244,0.0,0.0,86,0.00,,OVC024,0.00,VWS V14.01,2013-02-12 08:04:00,
2013-02-12 00:09:00,34.8,31.3,30.17,WSW,244,0.0,0.0,87,0.00,,OVC024,0.00,VWS V14.01,2013-02-12 08:09:00,
2013-02-12 00:14:00,34.8,31.3,30.17,WSW,244,0.0,0.0,87,0.00,,OVC024,0.00,VWS V14.01,2013-02-12 08:14:00,
2013-02-12 00:20:00,34.8,31.3,30.18,WSW,244,0.0,0.0,87,0.00,,OVC024,0.00,VWS V14.01,2013-02-12 08:20:00,
2013-02-12 00:25:00,34.7,31.2,30.18,WSW,244,0.0,0.0,87,0.00,,OVC024,0.00,VWS V14.01,2013-02-12 08:25:00,
2013-02-12 00:30:00,34.7,31.2,30.18,WSW,244,0.0,0.0,87,0.00,,OVC024,0.00,VWS V14.01,2013-02-12 08:30:00,
2013-02-12 00:35:00,34.7,31.2,30.18,WSW,244,0.0,0.0,87,0.00,,OVC024,0.00,VWS V14.01,2013-02-12 08:35:00,
2013-02-12 00:40:00,34.7,31.2,30.18,WSW,244,0.0,0.0,87,0.00,,OVC024,0.00,VWS V14.01,2013-02-12 08:40:00,
2013-02-12 00:45:00,34.7,31.2,30.18,WSW,244,0.0,0.0,87,0.00,,OVC024,0.00,VWS V14.01,2013-02-12 08:45:00,
2013-02-12 00:50:00,34.7,31.2,30.18,WSW,244,0.0,0.0,87,0.00,,OVC024,0.00,VWS V14.01,2013-02-12 08:50:00,
2013-02-12 00:55:00,34.7,31.5,30.18,WSW,244,0.0,0.0,88,0.00,,OVC024,0.00,VWS V14.01,2013-02-12 08:55:00,
2013-02-12 01:00:00,35.1,31.6,30.18,WSW,244,0.0,0.0,87,0.00,,OVC024,0.00,VWS V14.01,2013-02-12 09:00:00,
2013-02-12 01:05:00,35.3,31.8,30.18,WSW,244,0.0,0.0,87,0.00,,OVC024,0.00,VWS V14.01,2013-02-12 09:05:00,
2013-02-12 01:10:00,35.4,31.6,30.18,WSW,244,0.0,0.0,86,0.00,,OVC024,0.00,VWS V14.01,2013-02-12 09:10:00,
2013-02-12 01:15:00,35.4,31.6,30.18,WSW,244,0.0,0.0,86,0.00,,OVC024,0.00,VWS V14.01,2013-02-12 09:15:00,
2013-02-12 01:20:00,35.4,31.6,30.18,WSW,244,0.0,0.0,86,0.00,,OVC024,0.00,VWS V14.01,2013-02-12 09:20:00,
2013-02-12 01:25:00,35.3,31.5,30.18,WSW,244,0.0,0.0,86,0.00,,OVC024,0.00,VWS V14.01,2013-02-12 09:25:00,
2013-02-12 01:30:00,35.3,31.5,30.18,WSW,246,0.0,0.0,86,0.00,,OVC024,0.00,VWS V14.01,2013-02-12 09:30:00,
2013-02-12 01:36:00,35.3,31.5,30.19,WSW,244,0.0,0.0,86,0.00,,OVC024,0.00,VWS V14.01,2013-02-12 09:36:00,
2013-02-12 01:41:00,35.3,31.5,30.19,WSW,244,0.0,0.0,86,0.00,,OVC024,0.00,VWS V14.01,2013-02-12 09:41:00,
2013-02-12 01:46:00,35.3,31.5,30.19,WSW,244,0.0,0.0,86,0.00,,OVC024,0.00,VWS V14.01,2013-02-12 09:46:00,
2013-02-12 01:51:00,35.1,31.3,30.19,WSW,244,0.0,0.0,86,0.00,,OVC024,0.00,VWS V14.01,2013-02-12 09:51:00,
2013-02-12 01:56:00,35.1,31.0,30.19,WSW,244,0.0,0.0,85,0.00,,OVC024,0.00,VWS V14.01,2013-02-12 09:56:00,
2013-02-12 02:01:00,35.1,31.0,30.19,WSW,244,0.0,0.0,85,0.00,,OVC024,0.00,VWS V14.01,2013-02-12 10:01:00,
2013-02-12 02:06:00,35.1,31.0,30.19,WSW,244,0.0,0.0,85,0.00,,OVC022,0.00,VWS V14.01,2013-02-12 10:06:00,
2013-02-12 02:11:00,35.1,30.8,30.19,WSW,246,0.0,0.0,84,0.00,,OVC022,0.00,VWS V14.01,2013-02-12 10:11:00,
2013-02-12 02:16:00,35.1,30.8,30.19,WSW,244,0.0,0.0,84,0.00,,OVC022,0.00,VWS V14.01,2013-02-12 10:16:00,
2013-02-12 02:21:00,35.0,30.7,30.19,WSW,244,0.0,0.0,84,0.00,,OVC022,0.00,VWS V14.01,2013-02-12 10:21:00,
2013-02-12 02:26:00,35.1,30.8,30.19,WSW,244,0.0,0.0,84,0.00,,OVC022,0.00,VWS V14.01,2013-02-12 10:26:00,
2013-02-12 02:31:00,35.1,30.8,30.19,WSW,246,0.0,0.0,84,0.00,,OVC022,0.00,VWS V14.01,2013-02-12 10:31:00,
2013-02-12 02:36:00,35.1,30.8,30.19,WSW,246,0.0,0.0,84,0.00,,OVC022,0.00,VWS V14.01,2013-02-12 10:36:00,
2013-02-12 02:41:00,35.1,30.8,30.19,WSW,246,0.0,0.0,84,0.00,,OVC022,0.00,VWS V14.01,2013-02-12 10:41:00,
2013-02-12 02:46:00,35.1,30.8,30.19,WSW,246,0.0,0.0,84,0.00,,OVC022,0.00,VWS V14.01,2013-02-12 10:46:00,
2013-02-12 02:51:00,35.0,30.7,30.19,WSW,246,0.0,1.0,84,0.00,,OVC022,0.00,VWS V14.01,2013-02-12 10:51:00,
2013-02-12 02:56:00,35.0,30.7,30.19,WNW,284,1.0,1.0,84,0.00,,OVC022,0.00,VWS V14.01,2013-02-12 10:56:00,
2013-02-12 03:01:00,34.8,30.5,30.19,SW,226,0.0,0.0,84,0.00,,OVC013,0.00,VWS V14.01,2013-02-12 11:01:00,
2013-02-12 03:06:00,34.8,30.5,30.20,SW,230,0.0,0.0,84,0.00,,OVC013,0.00,VWS V14.01,2013-02-12 11:06:00,
2013-02-12 03:11:00,34.8,30.5,30.20,WSW,240,1.0,1.0,84,0.00,,OVC013,0.00,VWS V14.01,2013-02-12 11:11:00,
2013-02-12 03:16:00,34.5,30.2,30.20,West,260,0.0,0.0,84,0.00,,OVC013,0.00,VWS V14.01,2013-02-12 11:16:00,
2013-02-12 03:21:00,34.5,30.2,30.20,WSW,239,0.0,0.0,84,0.00,,OVC013,0.00,VWS V14.01,2013-02-12 11:21:00,
2013-02-12 03:27:00,34.5,30.2,30.20,WSW,240,0.0,0.0,84,0.00,,OVC013,0.00,VWS V14.01,2013-02-12 11:27:00,
2013-02-12 03:32:00,34.5,30.2,30.20,WSW,240,0.0,0.0,84,0.00,,OVC013,0.00,VWS V14.01,2013-02-12 11:32:00,
2013-02-12 03:37:00,34.5,30.2,30.20,WSW,243,0.0,0.0,84,0.00,,OVC013,0.00,VWS V14.01,2013-02-12 11:37:00,
2013-02-12 03:42:00,34.5,30.2,30.20,WSW,243,0.0,0.0,84,0.00,,OVC013,0.00,VWS V14.01,2013-02-12 11:42:00,
2013-02-12 03:47:00,34.5,30.2,30.20,SSE,147,0.0,0.0,84,0.00,,OVC013,0.00,VWS V14.01,2013-02-12 11:47:00,
2013-02-12 03:52:00,34.5,30.2,30.20,SSE,147,0.0,0.0,84,0.00,,OVC013,0.00,VWS V14.01,2013-02-12 11:52:00,
2013-02-12 03:57:00,34.5,30.2,30.20,SSE,147,0.0,0.0,84,0.00,,OVC013,0.00,VWS V14.01,2013-02-12 11:57:00,
2013-02-12 04:02:00,34.5,30.2,30.20,SSE,147,0.0,0.0,84,0.00,,OVC019,0.00,VWS V14.01,2013-02-12 12:02:00,
2013-02-12 04:07:00,34.5,30.2,30.20,SSE,147,0.0,0.0,84,0.00,,OVC019,0.00,VWS V14.01,2013-02-12 12:07:00,
2013-02-12 04:12:00,34.5,30.2,30.20,SSE,151,0.0,0.0,84,0.00,,OVC019,0.00,VWS V14.01,2013-02-12 12:12:00,
2013-02-12 04:17:00,34.5,30.2,30.21,SSE,151,0.0,0.0,84,0.00,,OVC019,0.00,VWS V14.01,2013-02-12 12:17:00,
2013-02-12 04:22:00,34.5,30.2,30.21,SSE,151,0.0,0.0,84,0.00,,OVC019,0.00,VWS V14.01,2013-02-12 12:22:00,
2013-02-12 04:27:00,34.5,30.2,30.21,SSE,151,0.0,0.0,84,0.00,,OVC019,0.00,VWS V14.01,2013-02-12 12:27:00,
2013-02-12 04:32:00,34.5,30.2,30.21,SSE,151,0.0,0.0,84,0.00,,OVC019,0.00,VWS V14.01,2013-02-12 12:32:00,
2013-02-12 04:37:00,34.5,30.2,30.21,SSE,151,0.0,0.0,84,0.00,,OVC019,0.00,VWS V14.01,2013-02-12 12:37:00,
2013-02-12 04:42:00,34.5,30.2,30.21,SSE,151,0.0,0.0,84,0.00,,OVC019,0.00,VWS V14.01,2013-02-12 12:42:00,
2013-02-12 04:47:00,34.5,30.2,30.21,SSE,151,0.0,0.0,84,0.00,,OVC019,0.00,VWS V14.01,2013-02-12 12:47:00,
2013-02-12 04:52:00,34.5,30.2,30.21,SSE,151,0.0,0.0,84,0.00,,OVC019,0.00,VWS V14.01,2013-02-12 12:52:00,
2013-02-12 04:57:00,34.5,30.2,30.21,SSE,151,0.0,0.0,84,0.00,,OVC019,0.00,VWS V14.01,2013-02-12 12:57:00,
2013-02-12 05:02:00,34.5,30.2,30.20,SSE,151,0.0,0.0,84,0.00,,OVC015,0.00,VWS V14.01,2013-02-12 13:02:00,
2013-02-12 05:07:00,34.5,30.2,30.20,SSE,151,0.0,0.0,84,0.00,,OVC015,0.00,VWS V14.01,2013-02-12 13:07:00,
2013-02-12 05:12:00,34.5,30.2,30.20,SSE,151,0.0,0.0,84,0.00,,OVC015,0.00,VWS V14.01,2013-02-12 13:12:00,
2013-02-12 05:17:00,34.5,30.5,30.21,SSE,151,0.0,0.0,85,0.00,,OVC015,0.00,VWS V14.01,2013-02-12 13:17:00,
2013-02-12 05:23:00,34.5,30.5,30.21,West,274,0.0,0.0,85,0.00,,OVC015,0.00,VWS V14.01,2013-02-12 13:23:00,
2013-02-12 05:28:00,34.5,30.8,30.21,West,272,0.0,0.0,86,0.00,,OVC015,0.00,VWS V14.01,2013-02-12 13:28:00,
2013-02-12 05:33:00,34.5,30.8,30.21,West,274,0.0,0.0,86,0.00,,OVC015,0.00,VWS V14.01,2013-02-12 13:33:00,
2013-02-12 05:38:00,34.5,30.8,30.21,West,274,0.0,0.0,86,0.00,,OVC015,0.00,VWS V14.01,2013-02-12 13:38:00,
2013-02-12 05:43:00,34.5,30.8,30.21,West,274,0.0,0.0,86,0.00,,OVC015,0.00,VWS V14.01,2013-02-12 13:43:00,
2013-02-12 05:48:00,34.5,30.8,30.22,West,274,0.0,0.0,86,0.00,,OVC015,0.00,VWS V14.01,2013-02-12 13:48:00,
2013-02-12 05:53:00,34.5,30.8,30.22,West,274,0.0,0.0,86,0.00,,OVC015,0.00,VWS V14.01,2013-02-12 13:53:00,
2013-02-12 05:58:00,34.5,30.8,30.22,West,274,0.0,0.0,86,0.00,,OVC015,0.00,VWS V14.01,2013-02-12 13:58:00,
2013-02-12 06:03:00,34.5,30.8,30.22,West,274,0.0,0.0,86,0.00,,OVC011,0.00,VWS V14.01,2013-02-12 14:03:00,
2013-02-12 06:08:00,34.5,30.8,30.22,West,274,0.0,0.0,86,0.00,,OVC011,0.00,VWS V14.01,2013-02-12 14:08:00,
2013-02-12 06:13:00,34.5,30.8,30.22,West,274,0.0,0.0,86,0.00,,OVC011,0.00,VWS V14.01,2013-02-12 14:13:00,
2013-02-12 06:19:00,34.5,30.8,30.22,West,274,0.0,0.0,86,0.00,,OVC011,0.00,VWS V14.01,2013-02-12 14:19:00,
2013-02-12 06:24:00,34.5,30.8,30.22,West,274,0.0,0.0,86,0.00,,OVC011,0.00,VWS V14.01,2013-02-12 14:24:00,
2013-02-12 06:29:00,34.5,30.8,30.22,West,274,0.0,0.0,86,0.00,,OVC011,0.00,VWS V14.01,2013-02-12 14:29:00,
2013-02-12 06:34:00,34.5,31.0,30.23,West,274,0.0,0.0,87,0.00,,OVC011,0.00,VWS V14.01,2013-02-12 14:34:00,
2013-02-12 06:39:00,34.5,31.0,30.23,West,274,0.0,0.0,87,0.00,,OVC011,0.00,VWS V14.01,2013-02-12 14:39:00,
2013-02-12 06:44:00,34.5,31.0,30.23,West,274,0.0,0.0,87,0.00,,OVC011,0.00,VWS V14.01,2013-02-12 14:44:00,
2013-02-12 06:49:00,34.5,31.0,30.23,West,272,0.0,0.0,87,0.00,,OVC011,0.00,VWS V14.01,2013-02-12 14:49:00,
2013-02-12 06:55:00,34.5,31.0,30.23,West,274,0.0,1.0,87,0.00,,OVC011,0.00,VWS V14.01,2013-02-12 14:55:00,
2013-02-12 07:00:00,34.4,30.6,30.23,West,274,0.0,0.0,86,0.00,,OVC011,0.00,VWS V14.01,2013-02-12 15:00:00,
2013-02-12 07:05:00,34.4,30.6,30.22,West,274,0.0,0.0,86,0.00,,OVC011,0.00,VWS V14.01,2013-02-12 15:05:00,
2013-02-12 07:10:00,34.4,30.6,30.22,West,274,0.0,0.0,86,0.00,,OVC011,0.00,VWS V14.01,2013-02-12 15:10:00,
2013-02-12 07:15:00,34.4,30.6,30.22,West,274,0.0,0.0,86,0.00,,OVC011,0.00,VWS V14.01,2013-02-12 15:15:00,
2013-02-12 07:20:00,34.4,30.6,30.23,West,274,0.0,0.0,86,0.00,,OVC011,0.00,VWS V14.01,2013-02-12 15:20:00,
2013-02-12 07:25:00,34.4,30.6,30.23,West,274,0.0,0.0,86,0.00,,OVC011,0.00,VWS V14.01,2013-02-12 15:25:00,
2013-02-12 07:30:00,34.4,30.9,30.23,West,274,0.0,0.0,87,0.00,,OVC011,0.00,VWS V14.01,2013-02-12 15:30:00,
2013-02-12 07:35:00,34.4,30.9,30.24,West,274,0.0,0.0,87,0.00,,OVC011,0.00,VWS V14.01,2013-02-12 15:35:00,
2013-02-12 07:40:00,34.4,30.9,30.24,West,274,0.0,0.0,87,0.00,,OVC011,0.00,VWS V14.01,2013-02-12 15:40:00,
2013-02-12 07:45:00,34.5,31.0,30.24,West,274,0.0,0.0,87,0.00,,OVC011,0.00,VWS V14.01,2013-02-12 15:45:00,
2013-02-12 07:50:00,34.7,31.2,30.24,West,274,0.0,0.0,87,0.00,,OVC011,0.00,VWS V14.01,2013-02-12 15:50:00,
2013-02-12 07:55:00,34.7,31.2,30.24,West,274,0.0,0.0,87,0.00,,OVC011,0.00,VWS V14.01,2013-02-12 15:55:00,
2013-02-12 08:01:00,34.8,31.3,30.24,West,274,0.0,0.0,87,0.00,,OVC011,0.00,VWS V14.01,2013-02-12 16:01:00,
2013-02-12 08:06:00,35.0,31.5,30.23,West,274,0.0,0.0,87,0.00,,,0.00,VWS V14.01,2013-02-12 16:06:00,
2013-02-12 08:11:00,35.1,31.6,30.23,West,274,0.0,0.0,87,0.00,,,0.00,VWS V14.01,2013-02-12 16:11:00,
2013-02-12 08:16:00,35.4,31.9,30.23,West,274,0.0,0.0,87,0.00,,,0.00,VWS V14.01,2013-02-12 16:16:00,
2013-02-12 08:21:00,35.6,32.1,30.24,West,274,0.0,0.0,87,0.00,,,0.00,VWS V14.01,2013-02-12 16:21:00,
2013-02-12 08:26:00,35.7,32.2,30.24,West,274,0.0,0.0,87,0.00,,,0.00,VWS V14.01,2013-02-12 16:26:00,
2013-02-12 08:31:00,35.7,32.2,30.25,West,274,0.0,0.0,87,0.00,,,0.00,VWS V14.01,2013-02-12 16:31:00,
2013-02-12 08:36:00,35.9,32.4,30.25,West,274,0.0,0.0,87,0.00,,,0.00,VWS V14.01,2013-02-12 16:36:00,
2013-02-12 08:42:00,35.9,32.4,30.25,WNW,289,0.0,0.0,87,0.00,,,0.00,VWS V14.01,2013-02-12 16:42:00,
2013-02-12 08:47:00,36.2,32.7,30.25,WNW,289,2.0,2.0,87,0.00,,,0.00,VWS V14.01,2013-02-12 16:47:00,
2013-02-12 08:52:00,36.3,32.8,30.25,WNW,289,0.0,0.0,87,0.00,,,0.00,VWS V14.01,2013-02-12 16:52:00,
2013-02-12 08:57:00,36.5,33.0,30.25,West,277,1.0,3.0,87,0.00,,,0.00,VWS V14.01,2013-02-12 16:57:00,
2013-02-12 09:02:00,36.5,33.0,30.25,West,277,0.0,0.0,87,0.00,,OVC013,0.00,VWS V14.01,2013-02-12 17:02:00,
2013-02-12 09:07:00,36.5,32.7,30.25,West,277,0.0,0.0,86,0.00,,OVC013,0.00,VWS V14.01,2013-02-12 17:07:00,
2013-02-12 09:12:00,36.5,32.7,30.25,West,277,0.0,0.0,86,0.00,,OVC013,0.00,VWS V14.01,2013-02-12 17:12:00,
2013-02-12 09:18:00,36.5,32.7,30.25,West,277,0.0,0.0,86,0.00,,OVC013,0.00,VWS V14.01,2013-02-12 17:18:00,
2013-02-12 09:23:00,36.5,32.7,30.25,West,277,0.0,0.0,86,0.00,,OVC013,0.00,VWS V14.01,2013-02-12 17:23:00,
2013-02-12 09:28:00,36.5,32.7,30.25,West,277,0.0,0.0,86,0.00,,OVC013,0.00,VWS V14.01,2013-02-12 17:28:00,
2013-02-12 09:33:00,36.5,32.7,30.25,West,277,0.0,0.0,86,0.00,,OVC013,0.00,VWS V14.01,2013-02-12 17:33:00,
2013-02-12 09:38:00,36.5,32.7,30.25,West,277,0.0,0.0,86,0.00,,OVC013,0.00,VWS V14.01,2013-02-12 17:38:00,
2013-02-12 09:43:00,36.8,33.0,30.25,SW,226,0.0,0.0,86,0.00,,OVC013,0.00,VWS V14.01,2013-02-12 17:43:00,
2013-02-12 09:48:00,36.8,33.0,30.24,SW,226,0.0,0.0,86,0.00,,OVC013,0.00,VWS V14.01,2013-02-12 17:48:00,
2013-02-12 09:53:00,37.2,33.4,30.24,SW,226,0.0,1.0,86,0.00,,OVC013,0.00,VWS V14.01,2013-02-12 17:53:00,
2013-02-12 09:58:00,37.5,33.7,30.24,SW,226,0.0,0.0,86,0.00,,OVC013,0.00,VWS V14.01,2013-02-12 17:58:00,
2013-02-12 10:03:00,37.5,33.4,30.25,SW,236,0.0,0.0,85,0.00,,OVC010,0.00,VWS V14.01,2013-02-12 18:03:00,
2013-02-12 10:09:00,37.6,33.5,30.25,SW,236,0.0,0.0,85,0.00,,OVC010,0.00,VWS V14.01,2013-02-12 18:09:00,
2013-02-12 10:14:00,37.6,33.5,30.25,SW,236,0.0,0.0,85,0.00,,OVC010,0.00,VWS V14.01,2013-02-12 18:14:00,
2013-02-12 10:19:00,38.0,33.9,30.25,SW,236,0.0,0.0,85,0.00,,OVC010,0.00,VWS V14.01,2013-02-12 18:19:00,
2013-02-12 10:24:00,38.0,33.9,30.25,SW,236,0.0,0.0,85,0.00,,OVC010,0.00,VWS V14.01,2013-02-12 18:24:00,
2013-02-12 10:29:00,38.0,33.9,30.25,SW,236,0.0,0.0,85,0.00,,OVC010,0.00,VWS V14.01,2013-02-12 18:29:00,
2013-02-12 10:34:00,38.2,34.1,30.25,WNW,295,0.0,1.0,85,0.00,,OVC010,0.00,VWS V14.01,2013-02-12 18:34:00,
2013-02-12 10:39:00,38.2,34.1,30.25,SSW,206,1.0,1.0,85,0.00,,OVC010,0.00,VWS V14.01,2013-02-12 18:39:00,
2013-02-12 10:44:00,38.2,34.1,30.25,SSW,208,0.0,0.0,85,0.00,,OVC010,0.00,VWS V14.01,2013-02-12 18:44:00,
2013-02-12 10:49:00,38.2,34.1,30.24,West,281,3.0,3.0,85,0.00,,OVC010,0.00,VWS V14.01,2013-02-12 18:49:00,
2013-02-12 10:54:00,38.2,34.1,30.24,West,281,3.0,3.0,85,0.00,,OVC010,0.00,VWS V14.01,2013-02-12 18:54:00,
2013-02-12 10:59:00,38.2,33.8,30.24,WSW,253,0.0,0.0,84,0.00,,OVC010,0.00,VWS V14.01,2013-02-12 18:59:00,
2013-02-12 11:04:00,38.2,33.8,30.25,WNW,287,0.0,5.0,84,0.00,,OVC010,0.00,VWS V14.01,2013-02-12 19:04:00,
2013-02-12 11:10:00,38.2,33.8,30.25,WNW,287,3.0,3.0,84,0.00,,OVC010,0.00,VWS V14.01,2013-02-12 19:10:00,
2013-02-12 11:15:00,38.0,34.2,30.25,WNW,292,3.0,3.0,86,0.00,,OVC010,0.00,VWS V14.01,2013-02-12 19:15:00,
2013-02-12 11:20:00,38.2,34.4,30.25,WNW,288,0.0,0.0,86,0.00,,OVC010,0.00,VWS V14.01,2013-02-12 19:20:00,
2013-02-12 11:25:00,38.2,34.4,30.25,WNW,288,3.0,3.0,86,0.00,,OVC010,0.00,VWS V14.01,2013-02-12 19:25:00,
2013-02-12 11:30:00,38.2,34.4,30.25,NW,316,1.0,2.0,86,0.00,,OVC010,0.00,VWS V14.01,2013-02-12 19:30:00,
2013-02-12 11:35:00,38.2,34.4,30.25,NW,316,0.0,2.0,86,0.00,,OVC010,0.00,VWS V14.01,2013-02-12 19:35:00,
2013-02-12 11:40:00,38.2,34.4,30.25,WNW,292,0.0,0.0,86,0.00,,OVC010,0.00,VWS V14.01,2013-02-12 19:40:00,
2013-02-12 11:45:00,38.2,34.4,30.25,NW,320,2.0,3.0,86,0.00,,OVC010,0.00,VWS V14.01,2013-02-12 19:45:00,
2013-02-12 11:50:00,38.2,34.4,30.25,NW,319,1.0,2.0,86,0.00,,OVC010,0.00,VWS V14.01,2013-02-12 19:50:00,
2013-02-12 11:56:00,38.3,34.5,30.25,WSW,257,1.0,1.0,86,0.00,,OVC010,0.00,VWS V14.01,2013-02-12 19:56:00,
2013-02-12 12:01:00,38.3,33.9,30.25,WSW,257,2.0,2.0,84,0.00,,OVC010,0.00,VWS V14.01,2013-02-12 20:01:00,
2013-02-12 12:06:00,38.3,33.9,30.25,West,265,0.0,0.0,84,0.00,,OVC010,0.00,VWS V14.01,2013-02-12 20:06:00,
2013-02-12 12:11:00,38.6,34.2,30.25,West,265,0.0,0.0,84,0.00,,OVC010,0.00,VWS V14.01,2013-02-12 20:11:00,
2013-02-12 12:16:00,38.8,34.1,30.25,West,264,0.0,0.0,83,0.00,,OVC010,0.00,VWS V14.01,2013-02-12 20:16:00,
2013-02-12 12:21:00,38.8,34.1,30.25,West,264,0.0,0.0,83,0.00,,OVC010,0.00,VWS V14.01,2013-02-12 20:21:00,
2013-02-12 12:26:00,39.0,34.3,30.25,West,264,0.0,0.0,83,0.00,,OVC010,0.00,VWS V14.01,2013-02-12 20:26:00,
2013-02-12 12:31:00,39.3,34.3,30.25,West,264,0.0,0.0,82,0.00,,OVC010,0.00,VWS V14.01,2013-02-12 20:31:00,
2013-02-12 12:36:00,39.5,34.5,30.25,West,264,2.0,2.0,82,0.00,,OVC010,0.00,VWS V14.01,2013-02-12 20:36:00,
2013-02-12 12:41:00,39.6,34.0,30.25,West,264,0.0,3.0,80,0.00,,OVC010,0.00,VWS V14.01,2013-02-12 20:41:00,
2013-02-12 12:46:00,39.8,34.1,30.25,WNW,294,2.0,2.0,80,0.00,,OVC010,0.00,VWS V14.01,2013-02-12 20:46:00,
2013-02-12 12:52:00,39.8,34.1,30.25,WNW,294,0.0,1.0,80,0.00,,OVC010,0.00,VWS V14.01,2013-02-12 20:52:00,
2013-02-12 12:57:00,39.8,34.1,30.25,West,264,2.0,2.0,80,0.00,,OVC010,0.00,VWS V14.01,2013-02-12 20:57:00,
2013-02-12 13:02:00,40.3,34.6,30.25,West,260,0.0,0.0,80,0.00,,BKN110,0.00,VWS V14.01,2013-02-12 21:02:00,
2013-02-12 13:07:00,40.8,33.8,30.25,WSW,258,0.0,3.0,76,0.00,,BKN110,0.00,VWS V14.01,2013-02-12 21:07:00,
2013-02-12 13:12:00,41.1,34.1,30.25,WSW,258,0.0,2.0,76,0.00,,BKN110,0.00,VWS V14.01,2013-02-12 21:12:00,
2013-02-12 13:17:00,41.2,34.2,30.24,WSW,258,2.0,2.0,76,0.00,,BKN110,0.00,VWS V14.01,2013-02-12 21:17:00,
2013-02-12 13:22:00,41.3,34.3,30.24,West,260,1.0,3.0,76,0.00,,BKN110,0.00,VWS V14.01,2013-02-12 21:22:00,
2013-02-12 13:27:00,41.5,33.8,30.24,WNW,294,0.0,1.0,74,0.00,,BKN110,0.00,VWS V14.01,2013-02-12 21:27:00,
2013-02-12 13:32:00,41.6,33.9,30.24,WNW,294,0.0,0.0,74,0.00,,BKN110,0.00,VWS V14.01,2013-02-12 21:32:00,
2013-02-12 13:37:00,41.8,33.8,30.24,WNW,294,0.0,0.0,73,0.00,,BKN110,0.00,VWS V14.01,2013-02-12 21:37:00,
2013-02-12 13:42:00,41.9,33.2,30.24,WNW,294,0.0,0.0,71,0.00,,BKN110,0.00,VWS V14.01,2013-02-12 21:42:00,
2013-02-12 13:47:00,41.9,33.2,30.24,WNW,294,0.0,0.0,71,0.00,,BKN110,0.00,VWS V14.01,2013-02-12 21:47:00,
2013-02-12 13:52:00,42.2,33.5,30.24,WNW,294,2.0,2.0,71,0.00,,BKN110,0.00,VWS V14.01,2013-02-12 21:52:00,
2013-02-12 13:57:00,42.2,33.5,30.24,WNW,294,0.0,0.0,71,0.00,,BKN110,0.00,VWS V14.01,2013-02-12 21:57:00,
2013-02-12 14:02:00,42.2,33.5,30.23,WNW,294,1.0,1.0,71,0.00,,BKN075,0.00,VWS V14.01,2013-02-12 22:02:00,
2013-02-12 14:08:00,42.5,33.8,30.23,WSW,243,7.0,7.0,71,0.00,,BKN075,0.00,VWS V14.01,2013-02-12 22:08:00,
2013-02-12 14:13:00,42.5,33.8,30.23,West,261,1.0,1.0,71,0.00,,BKN075,0.00,VWS V14.01,2013-02-12 22:13:00,
2013-02-12 14:18:00,43.6,34.8,30.22,West,274,0.0,0.0,71,0.00,,BKN075,0.00,VWS V14.01,2013-02-12 22:18:00,
2013-02-12 14:23:00,43.8,35.0,30.22,SW,227,3.0,3.0,71,0.00,,BKN075,0.00,VWS V14.01,2013-02-12 22:23:00,
2013-02-12 14:28:00,43.6,34.8,30.22,WSW,248,1.0,1.0,71,0.00,,BKN075,0.00,VWS V14.01,2013-02-12 22:28:00,
2013-02-12 14:33:00,43.3,34.5,30.21,WNW,292,1.0,1.0,71,0.00,,BKN075,0.00,VWS V14.01,2013-02-12 22:33:00,
2013-02-12 14:38:00,43.3,34.9,30.21,WNW,284,2.0,2.0,72,0.00,,BKN075,0.00,VWS V14.01,2013-02-12 22:38:00,
2013-02-12 14:43:00,43.6,35.2,30.21,SW,217,2.0,2.0,72,0.00,,BKN075,0.00,VWS V14.01,2013-02-12 22:43:00,
2013-02-12 14:48:00,43.6,35.2,30.20,WNW,284,3.0,3.0,72,0.00,,BKN075,0.00,VWS V14.01,2013-02-12 22:48:00,
2013-02-12 14:53:00,44.1,35.7,30.20,West,264,2.0,2.0,72,0.00,,BKN075,0.00,VWS V14.01,2013-02-12 22:53:00,
2013-02-12 14:59:00,44.3,35.9,30.20,West,267,1.0,1.0,72,0.00,,BKN075,0.00,VWS V14.01,2013-02-12 22:59:00,
2013-02-12 15:04:00,44.6,36.2,30.22,West,268,0.0,0.0,72,0.00,,FEW023,0.00,VWS V14.01,2013-02-12 23:04:00,
2013-02-12 15:09:00,44.6,36.2,30.22,West,281,0.0,0.0,72,0.00,,FEW023,0.00,VWS V14.01,2013-02-12 23:09:00,
2013-02-12 15:14:00,44.6,36.2,30.22,West,281,0.0,0.0,72,0.00,,FEW023,0.00,VWS V14.01,2013-02-12 23:14:00,
2013-02-12 15:19:00,44.6,36.2,30.23,West,281,0.0,0.0,72,0.00,,FEW023,0.00,VWS V14.01,2013-02-12 23:19:00,
2013-02-12 15:24:00,44.5,36.0,30.23,SW,227,1.0,1.0,72,0.00,,FEW023,0.00,VWS V14.01,2013-02-12 23:24:00,
2013-02-12 15:29:00,44.5,36.0,30.23,WNW,302,0.0,5.0,72,0.00,,FEW023,0.00,VWS V14.01,2013-02-12 23:29:00,
2013-02-12 15:34:00,44.6,36.2,30.22,WNW,301,0.0,1.0,72,0.00,,FEW023,0.00,VWS V14.01,2013-02-12 23:34:00,
2013-02-12 15:39:00,44.6,36.2,30.22,NW,309,3.0,3.0,72,0.00,,FEW023,0.00,VWS V14.01,2013-02-12 23:39:00,
2013-02-12 15:44:00,44.6,36.2,30.22,WNW,299,2.0,2.0,72,0.00,,FEW023,0.00,VWS V14.01,2013-02-12 23:44:00,
2013-02-12 15:49:00,44.6,35.1,30.22,West,271,1.0,1.0,69,0.00,,FEW023,0.00,VWS V14.01,2013-02-12 23:49:00,
2013-02-12 15:54:00,44.5,35.0,30.22,WSW,253,0.0,1.0,69,0.00,,FEW023,0.00,VWS V14.01,2013-02-12 23:54:00,
2013-02-12 15:59:00,44.6,35.1,30.22,WSW,254,0.0,0.0,69,0.00,,FEW023,0.00,VWS V14.01,2013-02-12 23:59:00,
2013-02-12 16:04:00,44.6,35.1,30.21,WSW,254,0.0,0.0,69,0.00,,FEW029,0.00,VWS V14.01,2013-02-13 00:04:00,
2013-02-12 16:09:00,44.6,35.4,30.21,WSW,254,0.0,0.0,70,0.00,,FEW029,0.00,VWS V14.01,2013-02-13 00:09:00,
2013-02-12 16:14:00,44.5,35.3,30.21,WSW,254,0.0,0.0,70,0.00,,FEW029,0.00,VWS V14.01,2013-02-13 00:14:00,
2013-02-12 16:20:00,44.5,35.3,30.21,WSW,254,0.0,0.0,70,0.00,,FEW029,0.00,VWS V14.01,2013-02-13 00:20:00,
2013-02-12 16:25:00,44.2,35.0,30.21,WSW,254,0.0,0.0,70,0.00,,FEW029,0.00,VWS V14.01,2013-02-13 00:25:00,
2013-02-12 16:30:00,44.2,35.0,30.21,WSW,254,0.0,0.0,70,0.00,,FEW029,0.00,VWS V14.01,2013-02-13 00:30:00,
2013-02-12 16:35:00,43.9,35.1,30.19,WSW,254,0.0,0.0,71,0.00,,FEW029,0.00,VWS V14.01,2013-02-13 00:35:00,
2013-02-12 16:40:00,43.6,34.8,30.19,WSW,254,0.0,0.0,71,0.00,,FEW029,0.00,VWS V14.01,2013-02-13 00:40:00,
2013-02-12 16:45:00,43.3,34.9,30.19,WSW,254,0.0,0.0,72,0.00,,FEW029,0.00,VWS V14.01,2013-02-13 00:45:00,
2013-02-12 16:50:00,43.3,34.9,30.19,WSW,254,0.0,0.0,72,0.00,,FEW029,0.00,VWS V14.01,2013-02-13 00:50:00,
2013-02-12 16:55:00,43.3,34.9,30.19,WSW,254,0.0,0.0,72,0.00,,FEW029,0.00,VWS V14.01,2013-02-13 00:55:00,
2013-02-12 17:00:00,43.3,34.9,30.19,WSW,254,0.0,0.0,72,0.00,,FEW029,0.00,VWS V14.01,2013-02-13 01:00:00,
2013-02-12 17:05:00,42.6,34.2,30.20,WSW,254,0.0,0.0,72,0.00,,SCT085,0.00,VWS V14.01,2013-02-13 01:05:00,
2013-02-12 17:11:00,42.5,34.1,30.20,WSW,254,0.0,0.0,72,0.00,,SCT085,0.00,VWS V14.01,2013-02-13 01:11:00,
2013-02-12 17:16:00,42.2,33.8,30.20,WSW,254,0.0,0.0,72,0.00,,SCT085,0.00,VWS V14.01,2013-02-13 01:16:00,
2013-02-12 17:21:00,42.2,33.8,30.20,WSW,254,0.0,0.0,72,0.00,,SCT085,0.00,VWS V14.01,2013-02-13 01:21:00,
2013-02-12 17:26:00,42.2,33.8,30.20,WSW,254,0.0,0.0,72,0.00,,SCT085,0.00,VWS V14.01,2013-02-13 01:26:00,
2013-02-12 17:31:00,42.2,33.8,30.20,WSW,254,0.0,0.0,72,0.00,,SCT085,0.00,VWS V14.01,2013-02-13 01:31:00,
2013-02-12 17:36:00,42.1,33.7,30.20,WSW,254,0.0,0.0,72,0.00,,SCT085,0.00,VWS V14.01,2013-02-13 01:36:00,
2013-02-12 17:41:00,42.1,33.7,30.20,WSW,254,0.0,0.0,72,0.00,,SCT085,0.00,VWS V14.01,2013-02-13 01:41:00,
2013-02-12 17:46:00,42.1,33.7,30.19,WSW,254,0.0,1.0,72,0.00,,SCT085,0.00,VWS V14.01,2013-02-13 01:46:00,
2013-02-12 17:51:00,42.2,33.8,30.19,WSW,254,0.0,1.0,72,0.00,,SCT085,0.00,VWS V14.01,2013-02-13 01:51:00,
2013-02-12 17:57:00,42.3,33.9,30.19,WSW,254,1.0,1.0,72,0.00,,SCT085,0.00,VWS V14.01,2013-02-13 01:57:00,
2013-02-12 18:02:00,42.3,33.6,30.19,WSW,254,0.0,0.0,71,0.00,,SCT085,0.00,VWS V14.01,2013-02-13 02:02:00,
2013-02-12 18:07:00,42.3,33.6,30.19,WSW,254,0.0,0.0,71,0.00,,BKN090,0.00,VWS V14.01,2013-02-13 02:07:00,
2013-02-12 18:12:00,42.2,33.5,30.19,WSW,240,1.0,1.0,71,0.00,,BKN090,0.00,VWS V14.01,2013-02-13 02:12:00,
2013-02-12 18:17:00,42.1,33.4,30.19,WSW,241,0.0,0.0,71,0.00,,BKN090,0.00,VWS V14.01,2013-02-13 02:17:00,
2013-02-12 18:22:00,42.1,33.7,30.19,WNW,284,2.0,2.0,72,0.00,,BKN090,0.00,VWS V14.01,2013-02-13 02:22:00,
2013-02-12 18:27:00,42.1,33.7,30.19,WNW,285,0.0,5.0,72,0.00,,BKN090,0.00,VWS V14.01,2013-02-13 02:27:00,
2013-02-12 18:32:00,42.2,33.8,30.19,WNW,285,3.0,3.0,72,0.00,,BKN090,0.00,VWS V14.01,2013-02-13 02:32:00,
2013-02-12 18:37:00,42.3,33.9,30.19,WNW,285,3.0,5.0,72,0.00,,BKN090,0.00,VWS V14.01,2013-02-13 02:37:00,
2013-02-12 18:42:00,42.3,34.3,30.19,WNW,285,2.0,3.0,73,0.00,,BKN090,0.00,VWS V14.01,2013-02-13 02:42:00,
2013-02-12 18:47:00,42.3,34.3,30.19,WNW,285,0.0,0.0,73,0.00,,BKN090,0.00,VWS V14.01,2013-02-13 02:47:00,
2013-02-12 18:52:00,42.3,34.3,30.19,WNW,285,0.0,0.0,73,0.00,,BKN090,0.00,VWS V14.01,2013-02-13 02:52:00,
2013-02-12 18:57:00,42.2,34.2,30.19,West,268,0.0,0.0,73,0.00,,BKN090,0.00,VWS V14.01,2013-02-13 02:57:00,
2013-02-12 19:02:00,42.2,34.2,30.19,West,280,3.0,3.0,73,0.00,,OVC090,0.00,VWS V14.01,2013-02-13 03:02:00,
2013-02-12 19:08:00,42.2,34.2,30.19,West,280,3.0,3.0,73,0.00,,OVC090,0.00,VWS V14.01,2013-02-13 03:08:00,
2013-02-12 19:13:00,42.2,35.5,30.19,West,277,0.0,0.0,77,0.00,,OVC090,0.00,VWS V14.01,2013-02-13 03:13:00,
2013-02-12 19:18:00,42.1,35.4,30.18,West,277,1.0,1.0,77,0.00,,OVC090,0.00,VWS V14.01,2013-02-13 03:18:00,
2013-02-12 19:23:00,42.1,35.4,30.18,West,277,0.0,1.0,77,0.00,,OVC090,0.00,VWS V14.01,2013-02-13 03:23:00,
2013-02-12 19:28:00,42.1,35.4,30.18,West,277,0.0,0.0,77,0.00,,OVC090,0.00,VWS V14.01,2013-02-13 03:28:00,
2013-02-12 19:33:00,42.1,36.4,30.17,West,277,0.0,0.0,80,0.00,,OVC090,0.00,VWS V14.01,2013-02-13 03:33:00,
2013-02-12 19:38:00,42.1,36.4,30.17,West,277,0.0,0.0,80,0.00,,OVC090,0.00,VWS V14.01,2013-02-13 03:38:00,
2013-02-12 19:43:00,42.1,36.4,30.17,West,277,0.0,1.0,80,0.00,,OVC090,0.00,VWS V14.01,2013-02-13 03:43:00,
2013-02-12 19:48:00,42.1,36.4,30.16,West,277,0.0,0.0,80,0.00,,OVC090,0.00,VWS V14.01,2013-02-13 03:48:00,
2013-02-12 19:53:00,42.1,37.3,30.16,West,270,2.0,2.0,83,0.00,,OVC090,0.00,VWS V14.01,2013-02-13 03:53:00,
2013-02-12 19:59:00,42.6,37.5,30.16,WSW,244,0.0,0.0,82,0.00,,OVC090,0.00,VWS V14.01,2013-02-13 03:59:00,
2013-02-12 20:04:00,42.6,37.5,30.16,West,267,0.0,5.0,82,0.00,,OVC090,0.00,VWS V14.01,2013-02-13 04:04:00,
2013-02-12 20:09:00,42.8,37.7,30.16,West,267,2.0,2.0,82,0.00,,OVC090,0.00,VWS V14.01,2013-02-13 04:09:00,
2013-02-12 20:14:00,42.9,37.8,30.16,West,277,0.0,0.0,82,0.00,,OVC090,0.00,VWS V14.01,2013-02-13 04:14:00,
2013-02-12 20:19:00,42.9,37.8,30.16,West,277,0.0,0.0,82,0.00,,OVC090,0.00,VWS V14.01,2013-02-13 04:19:00,
2013-02-12 20:24:00,42.9,37.8,30.16,West,277,1.0,3.0,82,0.00,,OVC090,0.00,VWS V14.01,2013-02-13 04:24:00,
2013-02-12 20:29:00,42.9,38.1,30.16,West,277,1.0,1.0,83,0.00,,OVC090,0.00,VWS V14.01,2013-02-13 04:29:00,
2013-02-12 20:34:00,42.9,38.1,30.15,WSW,243,0.0,1.0,83,0.00,,OVC090,0.00,VWS V14.01,2013-02-13 04:34:00,
2013-02-12 20:39:00,42.9,38.1,30.15,WSW,243,2.0,2.0,83,0.00,,OVC090,0.00,VWS V14.01,2013-02-13 04:39:00,
2013-02-12 20:44:00,42.8,38.0,30.15,WNW,289,3.0,6.0,83,0.00,,OVC090,0.00,VWS V14.01,2013-02-13 04:44:00,
2013-02-12 20:49:00,42.8,38.0,30.14,WNW,294,0.0,0.0,83,0.00,,OVC090,0.00,VWS V14.01,2013-02-13 04:49:00,
2013-02-12 20:54:00,42.8,38.0,30.14,WNW,294,0.0,0.0,83,0.00,,OVC090,0.00,VWS V14.01,2013-02-13 04:54:00,
2013-02-12 20:59:00,42.6,37.8,30.14,WNW,289,0.0,0.0,83,0.00,,OVC090,0.00,VWS V14.01,2013-02-13 04:59:00,
2013-02-12 21:00:00,42.6,37.8,30.14,WNW,289,0.0,0.0,83,0.00,,OVC090,0.00,VWS V14.01,2013-02-13 05:00:00,
2013-02-12 21:01:00,42.6,37.8,30.14,WNW,289,0.0,0.0,83,0.00,,OVC090,0.00,VWS V14.01,2013-02-13 05:01:00,
2013-02-12 21:06:00,42.6,37.8,30.14,WNW,289,1.0,1.0,83,0.00,,SCT090,0.00,VWS V14.01,2013-02-13 05:06:00,
2013-02-12 21:11:00,42.8,38.0,30.14,SW,227,0.0,0.0,83,0.00,,SCT090,0.00,VWS V14.01,2013-02-13 05:11:00,
2013-02-12 21:16:00,42.8,38.0,30.14,WNW,285,0.0,0.0,83,0.00,,SCT090,0.00,VWS V14.01,2013-02-13 05:16:00,
2013-02-12 21:21:00,42.8,38.0,30.13,WNW,285,1.0,1.0,83,0.00,,SCT090,0.00,VWS V14.01,2013-02-13 05:21:00,
2013-02-12 21:26:00,42.6,37.8,30.13,WNW,287,0.0,1.0,83,0.00,,SCT090,0.00,VWS V14.01,2013-02-13 05:26:00,
2013-02-12 21:31:00,42.6,37.8,30.13,WNW,287,0.0,0.0,83,0.00,,SCT090,0.00,VWS V14.01,2013-02-13 05:31:00,
2013-02-12 21:36:00,42.6,37.8,30.13,SSW,210,0.0,0.0,83,0.00,,SCT090,0.00,VWS V14.01,2013-02-13 05:36:00,
2013-02-12 21:41:00,42.5,37.7,30.13,West,272,1.0,3.0,83,0.00,,SCT090,0.00,VWS V14.01,2013-02-13 05:41:00,
2013-02-12 21:46:00,42.6,37.8,30.13,WNW,291,2.0,3.0,83,0.00,,SCT090,0.00,VWS V14.01,2013-02-13 05:46:00,
2013-02-12 21:51:00,42.6,37.8,30.14,WNW,291,1.0,1.0,83,0.00,,SCT090,0.00,VWS V14.01,2013-02-13 05:51:00,
2013-02-12 21:56:00,42.5,37.7,30.14,West,267,0.0,0.0,83,0.00,,SCT090,0.00,VWS V14.01,2013-02-13 05:56:00,
2013-02-12 22:01:00,42.5,37.7,30.14,West,267,0.0,0.0,83,0.00,,BKN060,0.00,VWS V14.01,2013-02-13 06:01:00,
2013-02-12 22:06:00,42.5,37.7,30.14,NW,313,0.0,0.0,83,0.00,,BKN060,0.00,VWS V14.01,2013-02-13 06:06:00,
2013-02-12 22:12:00,42.5,37.7,30.14,SW,226,0.0,0.0,83,0.00,,BKN060,0.00,VWS V14.01,2013-02-13 06:12:00,
2013-02-12 22:17:00,42.5,37.7,30.14,WSW,247,1.0,1.0,83,0.00,,BKN060,0.00,VWS V14.01,2013-02-13 06:17:00,
2013-02-12 22:22:00,42.5,37.7,30.14,WSW,247,0.0,0.0,83,0.00,,BKN060,0.00,VWS V14.01,2013-02-13 06:22:00,
2013-02-12 22:27:00,42.1,37.3,30.14,SW,220,1.0,1.0,83,0.00,,BKN060,0.00,VWS V14.01,2013-02-13 06:27:00,
2013-02-12 22:32:00,41.9,37.1,30.13,SW,230,2.0,2.0,83,0.00,,BKN060,0.00,VWS V14.01,2013-02-13 06:32:00,
2013-02-12 22:37:00,41.9,37.1,30.13,WSW,246,5.0,5.0,83,0.00,,BKN060,0.00,VWS V14.01,2013-02-13 06:37:00,
2013-02-12 22:42:00,41.9,37.1,30.13,West,272,0.0,0.0,83,0.00,,BKN060,0.00,VWS V14.01,2013-02-13 06:42:00,
2013-02-12 22:47:00,41.9,37.1,30.13,West,272,1.0,1.0,83,0.00,,BKN060,0.00,VWS V14.01,2013-02-13 06:47:00,
2013-02-12 22:53:00,41.8,37.0,30.13,West,263,1.0,1.0,83,0.00,,BKN060,0.00,VWS V14.01,2013-02-13 06:53:00,
2013-02-12 22:58:00,41.8,37.0,30.13,SSW,202,0.0,0.0,83,0.00,,BKN060,0.00,VWS V14.01,2013-02-13 06:58:00,
2013-02-12 23:03:00,41.8,37.0,30.13,WSW,250,0.0,3.0,83,0.00,,BKN085,0.00,VWS V14.01,2013-02-13 07:03:00,
2013-02-12 23:08:00,41.8,37.0,30.13,WSW,248,1.0,1.0,83,0.00,,BKN085,0.00,VWS V14.01,2013-02-13 07:08:00,
2013-02-12 23:13:00,41.8,37.0,30.13,WSW,250,0.0,0.0,83,0.00,,BKN085,0.00,VWS V14.01,2013-02-13 07:13:00,
2013-02-12 23:18:00,41.6,36.8,30.13,West,270,0.0,0.0,83,0.00,,BKN085,0.00,VWS V14.01,2013-02-13 07:18:00,
2013-02-12 23:23:00,41.6,36.8,30.13,WNW,284,3.0,3.0,83,0.00,,BKN085,0.00,VWS V14.01,2013-02-13 07:23:00,
2013-02-12 23:28:00,41.6,36.8,30.13,WSW,257,0.0,0.0,83,0.00,,BKN085,0.00,VWS V14.01,2013-02-13 07:28:00,
2013-02-12 23:34:00,41.5,36.7,30.13,WSW,257,0.0,0.0,83,0.00,,BKN085,0.00,VWS V14.01,2013-02-13 07:34:00,
2013-02-12 23:39:00,41.5,36.4,30.13,West,270,0.0,0.0,82,0.00,,BKN085,0.00,VWS V14.01,2013-02-13 07:39:00,
2013-02-12 23:44:00,41.5,36.4,30.13,WSW,244,0.0,0.0,82,0.00,,BKN085,0.00,VWS V14.01,2013-02-13 07:44:00,
2013-02-12 23:49:00,41.3,36.2,30.13,WNW,284,0.0,0.0,82,0.00,,BKN085,0.00,VWS V14.01,2013-02-13 07:49:00,
2013-02-12 23:54:00,41.3,36.2,30.13,WSW,248,3.0,3.0,82,0.00,,BKN085,0.00,VWS V14.01,2013-02-13 07:54:00,
2013-02-12 23:59:00,41.3,35.9,30.13,West,261,2.0,2.0,81,0.00,,BKN085,0.00,VWS V14.01,2013-02-13 07:59:00,